Lynchburg, VA

9:59 AM EDT on October 21, 2019 (GMT -0400)
Lynchburg Regional-Glenn

Weather History for KLYH - August, 2019

Change the Weather History Date:

Saturday, August 10, 2019

  Actual Average Record
Temperature  
Mean Temperature 76 °F 75 °F  
Max Temperature 87 °F 86 °F 99 °F (1900)
Min Temperature 65 °F 64 °F 53 °F (2002)
Degree Days  
Heating Degree Days 0 0  
Month to date heating degree days 0 0  
Since 1 June heating degree days 2 15  
Since 1 July heating degree days 0 1  
Cooling Degree Days 11 10  
Month to date cooling degree days 118 100  
Year to date cooling degree days 973 714  
Since 1 June cooling degree days 761 632  
Growing Degree Days 26 (Base 50)    
Moisture  
Dew Point 64 °F    
Average Humidity 72    
Maximum Humidity 93    
Minimum Humidity 51    
Precipitation  
Precipitation 0.00 in 0.10 in 2.06 in (1984)
Month to date precipitation 2.16 1.12  
Year to date precipitation 26.50 25.79  
Snow  
Snow 0.00 in - - ()
Month to date snowfall 0.0  
Since 1 June snowfall 0.0  
Since 1 July snowfall 0.0  
Snow Depth 0.00 in    
Sea Level Pressure  
Sea Level Pressure 29.93 in    
Wind  
Wind Speed 3 mph (South)    
Max Wind Speed 12 mph    
Max Gust Speed 15 mph    
Visibility 10 miles    
Events      
T = Trace of Precipitation, MM = Missing Value Source: NWS Daily Summary

Daily Weather History Graph

Daily Weather History Graph

Search for Another Location

Airport or City:

Astronomy

Aug. 10, 2019 Rise Set
Actual Time 6:28 AM EDT 8:15 PM EDT
Civil Twilight 6:00 AM EDT 8:43 PM EDT
Nautical Twilight 5:26 AM EDT 9:17 PM EDT
Astronomical Twilight 4:50 AM EDT 9:53 PM EDT
Moon 4:53 PM EDT (8/10) 2:05 AM EDT (8/10)
Length of Visible Light 14h 42m
Length of Day
13h 46m
Waxing Gibbous, 79% of the Moon is Illuminated
Aug 10
Waxing Gibbous
Aug 15
Full
Aug 23
Last Quarter
Aug 30
New
Sep 5
First Quarter

Hourly Weather History & Observations

Time (EDT) Temp. Heat Index Dew Point Humidity Pressure Visibility Wind Dir Wind Speed Gust Speed Precip Events Conditions
12:54 AM 69.1 °F - 66.0 °F 90% 29.91 in 10.0 mi SSW 4.6 mph - N/A   Clear
1:54 AM 66.9 °F - 64.9 °F 93% 29.91 in 10.0 mi Calm Calm - N/A   Clear
2:54 AM 66.9 °F - 64.9 °F 93% 29.91 in 10.0 mi Calm Calm - N/A   Clear
3:54 AM 66.0 °F - 64.9 °F 96% 29.91 in 10.0 mi Calm Calm - N/A   Clear
4:54 AM 68.0 °F - 64.9 °F 90% 29.91 in 10.0 mi North 3.5 mph - N/A   Clear
5:54 AM 70.0 °F - 64.0 °F 81% 29.91 in 10.0 mi North 4.6 mph - N/A   Clear
6:54 AM 68.0 °F - 63.0 °F 84% 29.94 in 10.0 mi Calm Calm - N/A   Partly Cloudy
7:54 AM 70.0 °F - 64.0 °F 81% 29.96 in 10.0 mi Calm Calm - N/A   Mostly Cloudy
8:54 AM 73.0 °F - 63.0 °F 71% 29.97 in 10.0 mi ESE 4.6 mph - N/A   Scattered Clouds
9:54 AM 77.0 °F - 61.0 °F 58% 29.98 in 10.0 mi Variable 3.5 mph - N/A   Partly Cloudy
10:54 AM 79.0 °F - 59.0 °F 50% 29.98 in 10.0 mi Variable 3.5 mph - N/A   Partly Cloudy
11:54 AM 81.0 °F 81.6 °F 60.1 °F 49% 29.97 in 10.0 mi Calm Calm - N/A   Partly Cloudy
12:54 PM 81.0 °F 82.2 °F 63.0 °F 54% 29.96 in 10.0 mi Variable 3.5 mph - N/A   Mostly Cloudy
1:54 PM 82.0 °F 83.4 °F 64.0 °F 54% 29.93 in 10.0 mi SSW 4.6 mph - N/A   Scattered Clouds
2:54 PM 82.9 °F 85.0 °F 66.0 °F 56% 29.91 in 10.0 mi Variable 4.6 mph - N/A   Clear
3:54 PM 86.0 °F 88.2 °F 66.0 °F 51% 29.88 in 10.0 mi SW 5.8 mph - N/A   Partly Cloudy
4:54 PM 84.0 °F 86.3 °F 66.0 °F 55% 29.88 in 10.0 mi SW 3.5 mph - N/A   Mostly Cloudy
5:54 PM 84.0 °F 86.5 °F 66.9 °F 56% 29.86 in 10.0 mi SSW 3.5 mph - N/A   Clear
6:54 PM 84.0 °F 87.0 °F 68.0 °F 58% 29.87 in 10.0 mi South 6.9 mph - N/A   Clear
7:54 PM 79.0 °F - 66.0 °F 64% 29.90 in 10.0 mi NE 6.9 mph - N/A   Scattered Clouds
8:54 PM 75.9 °F - 66.9 °F 74% 29.93 in 10.0 mi ESE 8.1 mph - N/A   Scattered Clouds
9:54 PM 75.0 °F - 64.9 °F 71% 29.95 in 10.0 mi East 3.5 mph - N/A   Scattered Clouds
10:54 PM 72.0 °F - 64.9 °F 78% 29.97 in 10.0 mi Calm Calm - N/A   Mostly Cloudy
11:54 PM 71.1 °F - 64.0 °F 78% 29.98 in 10.0 mi North 3.5 mph - N/A   Mostly Cloudy